CAPE
32 26 57 78 83 110 81 73 87 87 110 60 1 1 0 0 4 10 14 5 320 496 440 468 275 187 455 431 417 263 226 147 886 559 1031 892 629 383 187 0 0 0 55 0 40 0 0 0 0 0 1 0 0 0
53 53 48 89 103 75 68 92 94 89 51 14 3 12 1 3 7 8 3 0 3 527 731 609 306 421 408 569 866 406 619 369 525 703 804 1178 306 0 235 172 0 43 59 239 3 27 0 0 0 0 0 0 0 0
35 55 55 65 63 55 66 61 28 12 16 6 11 2 0 2 4 1 0 0 202 382 499 525 522 183 221 426 791 605 1082 539 650 916 1041 865 64 658 18 491 268 0 0 24 0 0 0 0 0 0 0 0 0 0
36 56 45 39 30 25 15 6 7 20 5 14 4 1 3 1 3 3 6 16 954 692 397 349 157 120 76 253 477 891 1218 1242 1178 1259 1331 0 151 339 776 434 400 11 0 0 0 0 0 0 0 0 0 0 0 0
8 1 0 0 8 11 9 21 1 5 7 9 4 1 0 1 3 6 4 72 589 732 303 313 116 116 101 219 190 554 1028 926 935 566 0 858 378 441 174 197 455 0 0 99 92 0 0 0 0 0 0 0 0 0
3 14 16 18 5 12 7 4 6 2 0 0 0 0 0 0 0 5 309 395 124 1053 654 346 36 107 110 172 228 508 604 843 722 899 417 208 1 524 71 297 0 0 0 0 0 0 0 0 0 0 0 0 0 0
1 0 0 0 0 0 0 0 0 0 0 0 0 0 0 0 0 224 177 8 0 932 737 140 67 22 103 130 161 270 409 588 553 322 134 88 1 78 3 442 0 0 0 0 0 0 0 0 0 0 0 2 0 0
1 1 0 0 0 0 0 0 0 0 0 0 0 0 0 0 0 23 0 0 0 388 744 26 0 93 2 323 28 37 512 300 12 2 1 126 0 133 136 0 0 0 0 0 0 0 0 0 0 3 1 0 0 0
0 0 0 0 0 0 0 0 0 0 0 0 0 0 38 184 624 18 0 0 91 179 97 0 0 1 1 2 2 2 40 1 1 7 2 0 1 1 0 0 0 1 0 0 0 0 0 0 1 1 0 1 0 0
0 0 0 0 0 1 1 0 0 0 0 0 3 224 87 31 0 0 76 83 0 56 0 1 4 9 1 10 7 1 1 1 5 3 0 1 1 0 0 0 0 1 2 0 0 2 1 1 0 1 4 5 1 0
0 0 0 0 0 0 0 0 0 0 0 445 386 6 0 0 86 62 3 6 23 18 2 0 3 6 0 2 7 2 8 0 5 2 8 7 0 2 2 1 0 1 0 0 0 0 2 2 1 1 0 0 0 0
0 0 0 0 0 0 0 0 0 0 68 191 101 1 6 62 17 0 3 5 1 2 3 9 5 1 1 2 3 5 1 1 6 4 11 13 0 3 2 2 2 1 0 0 0 1 1 5 1 0 0 0 0 0
0 0 0 0 0 0 0 0 0 0 0 102 6 0 6 0 11 10 1 8 2 0 1 9 0 5 3 1 3 0 1 12 14 26 6 3 5 3 2 2 1 1 1 1 1 0 0 0 0 0 0 0 0 0
0 0 0 0 0 0 0 0 0 0 0 0 1 0 1 6 4 5 3 2 1 0 1 2 5 3 5 2 1 0 0 0 9 9 7 5 2 0 1 3 1 0 0 0 0 0 0 0 0 0 0 0 0 0
0 0 0 0 0 0 0 0 0 0 0 0 1 6 7 4 1 1 0 1 0 1 3 7 7 1 3 4 6 1 5 5 3 9 5 1 0 1 2 5 0 0 0 0 0 0 0 0 0 1 0 0 0 0
0 0 0 0 0 0 0 0 0 0 2 1 1 3 1 1 1 1 0 1 2 2 0 12 13 7 4 3 3 17 13 10 6 4 2 0 0 1 3 0 0 0 4 0 0 0 0 0 1 0 0 0 0 0
0 0 0 0 0 0 0 0 0 1 6 8 5 0 0 0 6 3 1 0 1 0 2 4 3 6 0 7 7 6 10 7 4 5 1 0 0 2 7 0 0 0 0 4 5 4 2 0 0 0 0 0 0 0
0 0 0 0 0 0 0 0 1 4 7 9 9 7 8 0 1 1 0 0 0 0 0 6 7 11 16 16 10 11 2 2 2 1 2 2 3 4 7 5 2 8 1 0 0 1 0 0 0 0 0 0 0 0
0 0 0 0 0 0 0 0 7 7 17 18 9 5 6 4 2 1 0 3 1 1 3 3 4 10 10 5 5 2 2 2 1 1 0 3 2 2 2 0 0 0 0 1 5 1 0 0 0 0 0 0 0 0
0 0 0 0 0 0 0 2 15 5 8 13 16 16 16 14 13 4 3 7 1 7 4 6 6 6 5 4 2 0 1 1 1 1 2 2 2 0 0 0 0 0 0 0 0 0 0 0 0 0 0 0 1 0
0 0 0 0 0 1 11 12 11 10 7 8 4 8 11 19 12 10 14 9 2 8 13 15 13 8 15 1 1 1 0 0 6 2 5 3 2 2 3 3 1 2 4 3 2 0 0 0 0 0 2 7 1 2
0 0 0 1 0 0 7 31 13 17 11 16 6 15 15 34 25 16 22 15 15 25 20 14 10 6 5 7 5 1 1 2 2 1 1 2 3 4 6 8 6 4 1 1 0 2 1 0 0 0 2 4 2 10
0 0 2 0 0 1 2 23 15 11 8 8 19 12 22 19 15 20 21 14 16 24 25 12 9 10 8 6 3 4 7 6 5 5 5 6 5 4 3 2 7 5 1 0 0 0 0 0 0 0 4 5 6 13
0 0 1 2 8 1 24 2 7 6 11 21 13 14 4 5 18 22 12 21 23 11 12 6 12 9 3 2 3 3 9 7 4 5 15 6 4 6 4 3 1 0 0 1 1 2 1 2 0 2 4 4 7 5
0 0 0 0 13 2 5 9 15 10 13 15 21 22 13 13 17 12 13 26 8 10 6 11 5 4 11 9 6 4 5 6 4 1 2 10 4 3 2 0 0 0 1 2 1 1 2 3 4 1 1 4 1 2
1 4 1 1 2 4 3 4 3 2 8 17 3 0 10 30 10 10 9 20 9 10 10 10 13 5 2 3 3 3 3 5 3 1 2 1 1 3 1 0 1 0 1 3 1 1 1 0 1 0 1 1 0 2
1 1 2 1 1 4 11 8 12 23 17 19 23 20 29 22 5 11 8 9 11 11 6 6 5 4 4 4 4 3 1 0 0 0 0 0 0 0 0 0 0 0 0 1 0 0 0 1 2 2 3 7 6 1
0 0 1 5 3 11 0 5 12 14 9 2 16 2 1 3 4 11 13 15 19 5 4 4 3 3 3 4 6 6 7 0 0 0 0 0 1 2 1 2 0 0 0 0 0 0 0 0 0 2 3 1 0 5
1 3 8 0 0 1 4 14 11 3 1 3 13 5 3 5 9 11 13 21 8 5 8 9 15 7 3 2 6 4 5 1 0 0 0 1 3 2 1 2 3 2 3 3 3 8 5 1 1 2 1 1 0 4
1 7 5 2 1 5 11 9 15 4 1 7 1 2 4 8 12 8 8 8 9 10 8 9 9 3 3 6 4 1 1 1 2 0 0 0 0 2 5 3 2 3 4 2 3 2 11 2 6 2 3 4 3 1
4 12 7 9 11 7 3 4 19 10 7 5 9 4 4 7 10 6 3 16 6 4 13 9 3 3 2 1 2 1 1 1 0 0 0 0 1 2 4 3 4 4 3 3 2 1 6 4 2 3 3 1 0 1
7 4 5 3 12 7 7 4 5 31 25 18 10 5 6 18 4 5 4 6 10 7 0 3 3 4 1 2 1 0 0 1 0 0 0 0 1 2 5 2 4 8 7 2 3 3 4 3 3 2 2 1 0 0
6 6 5 5 8 16 11 7 8 10 11 10 7 7 3 2 1 7 6 8 7 7 5 5 7 6 1 0 0 0 0 0 1 6 5 0 0 0 0 3 3 2 1 2 1 2 2 1 4 2 0 0 0 0
CIN
-17 -30 -24 -8 -3 -1 -21 -13 -6 -3 -1 -15 -8 -0 -0 -0 -0 -0 -0 -4 -3 -9 -1 -3 -6 -16 -2 -22 -25 -56 -65 -60 -18 -61 -16 -2 -28 -11 -5 -0 -0 -0 -30 -0 -14 -0 -0 -0 -0 -0 -1 -0 -0 -0
-2 -0 -18 -0 -1 -9 -13 -5 -4 -2 -6 -31 -0 -0 -0 -0 -0 -0 -1 -0 -0 -3 -26 -103 -164 -129 -97 -66 -15 -82 -21 -53 -52 -10 -21 -13 -63 -0 -54 -1 -0 -15 -5 -3 -8 -26 -0 -0 -0 -0 -0 -0 -0 -0
-0 -0 -0 -2 -3 -10 -2 -4 -8 -2 -0 -1 -0 -0 -0 -0 -0 -0 -0 -0 -90 -2 -55 -36 -60 -184 -187 -148 -78 -37 -9 -13 -23 -4 -20 -17 -123 -26 -23 -11 -5 -0 -0 -24 -0 -0 -0 -0 -0 -0 -0 -0 -0 -0
-3 -9 -3 -3 -2 -1 -0 -1 -1 -1 -0 -0 -0 -0 -0 -0 -0 -0 -0 -18 -7 -62 -50 -13 -126 -174 -228 -139 -96 -64 -14 -39 -55 -41 -33 -0 -117 -18 -15 -15 -4 -19 -0 -0 -0 -0 -0 -0 -0 -0 -0 -0 -0 -0
-9 -4 -0 -0 -0 -0 -3 -0 -1 -0 -0 -0 -1 -1 -0 -0 -0 -0 -1 -42 -51 -21 -28 -14 -91 -135 -137 -93 -89 -72 -56 -56 -60 -109 -0 -39 -50 -62 -125 -55 -11 -0 -0 -19 -2 -0 -0 -0 -0 -0 -0 -0 -0 -0
-0 -0 -0 -0 -0 -1 -6 -4 -0 -1 -0 -0 -0 -0 -0 -0 -0 -4 -1 -53 -217 -14 -29 -3 -54 -62 -84 -68 -57 -54 -50 -27 -21 -36 -82 -87 -5 -44 -83 -17 -0 -0 -0 -0 -0 -0 -0 -0 -0 -0 -0 -0 -0 -0
-0 -0 -0 -0 -0 -0 -0 -0 -0 -0 -0 -0 -0 -0 -0 -0 -3 -24 -24 -96 -0 -52 -33 -32 -54 -82 -45 -59 -76 -44 -33 -16 -8 -70 -106 -120 -32 -69 -9 -9 -0 -0 -0 -0 -0 -0 -0 -0 -0 -0 -0 -0 -0 -0
-0 -0 -0 -0 -0 -0 -0 -0 -0 -0 -0 -0 -0 -0 -0 -0 -0 -19 -0 -0 -0 -27 -6 -78 -0 -22 -7 -4 -33 -115 -6 -39 -64 -0 -0 -21 -0 -50 -22 -0 -0 -0 -0 -0 -0 -0 -0 -0 -0 -0 -0 -0 -0 -0
-0 -0 -0 -0 -0 -0 -0 -0 -0 -0 -0 -0 -0 -0 -10 -12 -1 -18 -0 -0 -166 -48 -29 -0 -0 -0 -0 -0 -2 -0 -76 -0 -3 -0 -0 -19 -0 -0 -0 -0 -0 -0 -0 -0 -0 -0 -0 -0 -0 -0 -0 -0 -0 -0
-0 -0 -0 -0 -0 -0 -0 -0 -0 -0 -0 -0 -48 -2 -4 -30 -0 -0 -46 -78 -56 -18 -101 -0 -1 -0 -0 -0 -0 -0 -0 -0 -0 -0 -0 -1 -0 -0 -0 -0 -0 -0 -0 -0 -0 -0 -0 -0 -0 -0 -0 -1 -4 -0
-0 -0 -0 -0 -0 -0 -0 -0 -0 -0 -0 -6 -12 -16 -15 -0 -20 -37 -54 -13 -6 -30 -0 -0 -0 -0 -0 -0 -0 -0 -0 -2 -0 -0 -0 -0 -0 -0 -0 -0 -0 -0 -0 -0 -0 -0 -0 -0 -7 -7 -0 -0 -0 -0
-0 -0 -0 -0 -0 -0 -0 -0 -0 -0 -6 -6 -12 -38 -44 -29 -38 -0 -0 -0 -0 -0 -0 -0 -0 -0 -0 -4 -0 -0 -0 -2 -1 -1 -0 -0 -0 -0 -0 -0 -0 -0 -0 -0 -0 -0 -0 -0 -0 -0 -0 -0 -0 -0
-0 -0 -0 -0 -0 -0 -0 -0 -0 -0 -0 -72 -90 -0 -23 -0 -0 -4 -0 -0 -0 -0 -0 -0 -0 -0 -0 -0 -2 -0 -0 -0 -1 -0 -0 -0 -0 -0 -0 -0 -0 -0 -0 -1 -0 -0 -0 -0 -0 -0 -0 -0 -0 -0
-0 -0 -0 -0 -0 -0 -0 -0 -0 -0 -0 -0 -0 -0 -0 -0 -0 -0 -0 -0 -0 -0 -0 -1 -0 -0 -0 -0 -0 -0 -0 -1 -0 -0 -0 -0 -0 -0 -1 -0 -0 -1 -0 -0 -0 -0 -0 -0 -0 -0 -0 -0 -0 -0
-0 -0 -0 -0 -0 -0 -0 -0 -0 -0 -0 -0 -0 -0 -0 -0 -0 -0 -0 -0 -0 -0 -0 -0 -0 -0 -0 -0 -0 -0 -0 -0 -0 -0 -0 -0 -0 -0 -0 -0 -0 -0 -0 -0 -0 -0 -0 -0 -0 -0 -0 -0 -0 -0
-0 -0 -0 -0 -0 -0 -0 -0 -0 -0 -0 -0 -0 -0 -0 -0 -0 -0 -0 -0 -0 -0 -0 -1 -0 -0 -0 -0 -0 -0 -0 -0 -0 -0 -0 -0 -0 -0 -0 -0 -0 -0 -4 -0 -0 -0 -0 -0 -1 -0 -0 -0 -0 -0
-0 -0 -0 -0 -0 -0 -0 -0 -0 -0 -0 -0 -0 -0 -0 -0 -0 -0 -0 -0 -0 -0 -0 -0 -0 -0 -0 -0 -0 -0 -0 -0 -0 -0 -0 -0 -0 -0 -0 -1 -0 -0 -0 -0 -0 -0 -0 -0 -0 -0 -0 -0 -0 -0
-0 -0 -0 -0 -0 -0 -0 -1 -0 -0 -0 -0 -0 -0 -0 -0 -0 -0 -0 -0 -0 -0 -0 -0 -0 -0 -0 -0 -0 -0 -0 -0 -0 -0 -0 -0 -0 -0 -0 -0 -0 -0 -5 -0 -1 -0 -0 -0 -0 -0 -0 -0 -0 -0
-0 -0 -0 -0 -0 -0 -0 -0 -0 -0 -0 -0 -0 -0 -0 -0 -0 -0 -0 -1 -1 -0 -0 -0 -0 -0 -0 -0 -0 -0 -0 -0 -0 -0 -0 -0 -0 -0 -0 -0 -0 -0 -0 -0 -0 -1 -0 -0 -0 -0 -0 -0 -0 -0
-0 -0 -0 -0 -0 -0 -0 -1 -0 -0 -0 -0 -0 -0 -0 -0 -0 -0 -0 -1 -0 -0 -0 -0 -0 -0 -0 -0 -0 -0 -0 -0 -0 -0 -0 -0 -0 -0 -0 -0 -1 -0 -0 -0 -0 -0 -0 -0 -0 -0 -0 -0 -0 -0
-0 -0 -0 -0 -0 -0 -0 -0 -0 -0 -0 -0 -0 -0 -0 -0 -0 -0 -0 -1 -0 -0 -0 -0 -0 -0 -0 -0 -0 -0 -0 -0 -0 -0 -0 -0 -0 -0 -0 -0 -0 -0 -0 -0 -0 -0 -0 -0 -0 -0 -0 -0 -0 -0
-0 -0 -0 -0 -0 -0 -0 -0 -0 -0 -0 -0 -0 -0 -0 -0 -0 -0 -0 -0 -0 -0 -0 -0 -0 -0 -0 -0 -0 -0 -0 -0 -0 -0 -0 -0 -0 -0 -0 -0 -0 -0 -0 -0 -0 -0 -0 -0 -0 -0 -0 -0 -0 -0
-0 -0 -0 -0 -0 -0 -0 -1 -0 -0 -0 -0 -0 -0 -0 -0 -0 -1 -0 -0 -0 -0 -0 -0 -0 -0 -0 -0 -0 -0 -0 -0 -0 -0 -0 -0 -0 -0 -0 -0 -0 -0 -0 -0 -0 -0 -0 -0 -0 -0 -0 -0 -0 -0
-0 -0 -0 -0 -0 -0 -0 -0 -0 -0 -0 -0 -0 -0 -0 -0 -1 -0 -0 -0 -0 -0 -0 -0 -1 -0 -0 -0 -0 -0 -0 -0 -0 -0 -0 -0 -0 -0 -0 -0 -0 -0 -0 -0 -0 -0 -0 -0 -0 -0 -0 -0 -0 -0
-0 -0 -0 -0 -0 -1 -0 -0 -0 -0 -0 -0 -0 -0 -0 -0 -0 -0 -0 -0 -0 -0 -0 -1 -0 -0 -0 -0 -0 -0 -0 -0 -0 -0 -0 -0 -0 -0 -0 -0 -0 -0 -0 -0 -0 -0 -0 -0 -0 -0 -0 -0 -0 -0
-0 -0 -0 -0 -0 -0 -0 -0 -0 -0 -0 -0 -0 -0 -0 -0 -0 -0 -0 -0 -0 -0 -0 -0 -0 -0 -0 -0 -0 -0 -0 -0 -0 -0 -0 -0 -0 -0 -0 -0 -0 -0 -0 -0 -0 -0 -0 -0 -0 -0 -0 -0 -0 -0
-0 -0 -0 -1 -2 -1 -0 -0 -1 -0 -0 -0 -0 -0 -0 -0 -0 -0 -0 -0 -0 -0 -0 -0 -0 -0 -0 -0 -0 -0 -0 -0 -0 -0 -0 -0 -0 -0 -0 -0 -0 -0 -0 -0 -0 -0 -0 -0 -0 -0 -0 -0 -0 -0
-0 -0 -0 -0 -0 -0 -0 -0 -0 -0 -0 -0 -0 -0 -0 -0 -0 -0 -0 -0 -0 -0 -0 -0 -0 -0 -0 -0 -0 -0 -0 -0 -0 -0 -0 -0 -0 -0 -0 -0 -0 -0 -0 -0 -0 -0 -0 -0 -0 -0 -0 -0 -0 -0
-0 -0 -0 -0 -0 -0 -0 -0 -0 -0 -0 -0 -0 -0 -0 -0 -0 -0 -0 -0 -0 -0 -0 -0 -0 -0 -0 -0 -0 -0 -0 -0 -0 -0 -0 -0 -0 -0 -0 -0 -0 -0 -0 -0 -1 -0 -1 -0 -0 -0 -0 -0 -0 -0
-0 -1 -0 -0 -0 -0 -0 -0 -0 -0 -0 -0 -0 -0 -0 -0 -0 -0 -0 -0 -0 -0 -0 -0 -0 -0 -0 -0 -0 -0 -0 -0 -0 -0 -0 -0 -0 -0 -0 -0 -0 -0 -0 -0 -0 -0 -2 -1 -0 -0 -0 -0 -0 -0
-0 -0 -0 -0 -0 -0 -0 -0 -0 -0 -0 -0 -0 -0 -0 -0 -0 -0 -0 -0 -0 -0 -0 -0 -0 -0 -0 -0 -0 -0 -0 -0 -0 -0 -0 -0 -0 -0 -0 -0 -0 -0 -0 -0 -0 -0 -0 -0 -0 -0 -0 -0 -2 -1
-0 -0 -0 -0 -0 -0 -0 -0 -0 -0 -0 -0 -0 -0 -0 -0 -0 -0 -0 -0 -0 -0 -0 -0 -0 -0 -0 -0 -0 -1 -0 -0 -0 -0 -0 -0 -0 -0 -0 -0 -0 -0 -0 -0 -0 -0 -0 -0 -0 -1 -1 -1 -0 -0
-0 -0 -0 -0 -0 -0 -0 -0 -0 -0 -0 -0 -0 -0 -0 -0 -0 -0 -0 -0 -0 -0 -0 -0 -0 -0 -0 -0 -0 -0 -0 -0 -0 -0 -0 -0 -0 -0 -0 -0 -0 -0 -0 -0 -0 -0 -0 -1 -0 -1 -2 -1 -0 -0
Wind_Speed
20 20 20 19 19 17 16 17 16 19 22 22 22 20 20 20 20 11 13 10 6 6 13 21 14 12 10 15 6 12 7 3 3 3 3 3 2 4 2 6 8 7 6 3 2 2 6 6 5 2 5 5 8 7
18 17 15 15 17 17 16 16 18 20 21 21 21 22 22 20 18 15 8 11 11 9 4 9 13 15 9 5 7 9 6 11 6 4 1 4 2 2 2 2 6 4 5 4 8 4 5 3 5 6 6 4 5 7
15 15 14 14 15 16 18 18 19 18 21 21 22 20 17 18 19 22 13 11 7 8 6 6 9 10 10 6 6 4 3 8 6 2 4 3 4 3 4 3 4 4 5 2 3 3 5 5 4 11 11 8 8 8
13 13 11 11 11 13 15 13 17 17 26 25 21 22 22 21 22 18 10 10 8 6 6 5 3 5 6 4 5 4 5 5 7 5 3 4 4 4 3 2 3 2 7 5 5 3 4 14 14 10 7 10 10 10
8 9 9 14 17 17 20 21 21 18 20 24 24 20 19 18 20 13 10 12 7 3 5 4 7 6 2 3 5 5 8 8 4 3 3 2 3 4 2 1 1 5 1 3 1 8 4 12 10 10 11 12 12 14
22 22 22 24 25 21 20 18 19 20 20 18 20 21 20 18 15 5 5 4 6 5 5 4 2 4 5 7 9 8 6 5 3 4 1 3 3 0 3 3 6 8 7 6 4 4 9 13 17 15 14 13 14 15
14 15 15 17 18 19 20 18 17 17 20 22 22 23 21 20 9 3 4 5 10 4 4 4 4 1 5 7 5 4 3 4 4 3 2 3 3 3 3 3 10 6 5 8 5 3 9 8 10 13 14 13 14 14
21 19 17 18 18 18 18 20 23 22 21 21 20 18 17 19 12 1 3 8 8 2 4 4 1 4 2 3 3 5 2 4 6 3 1 2 3 2 2 9 9 6 10 8 10 13 14 14 14 13 11 12 13 11
23 24 24 23 22 21 22 22 23 23 24 25 25 21 8 1 3 3 5 11 2 6 2 2 5 4 3 4 2 2 2 3 2 2 2 3 2 3 6 9 9 5 5 10 10 11 11 13 12 11 12 11 10 6
26 28 28 25 22 22 22 24 26 27 29 30 19 5 3 1 2 0 1 5 7 2 4 2 1 4 1 2 2 2 2 3 3 1 3 2 3 6 5 7 6 4 10 12 12 9 11 12 12 11 10 8 9 10
29 29 29 29 26 17 13 16 18 24 23 6 4 4 1 3 1 3 4 4 2 2 3 1 4 5 3 3 3 2 3 0 3 3 4 3 3 5 6 6 5 5 11 7 10 12 11 11 8 7 9 10 8 9
25 28 27 26 24 21 19 10 5 6 3 6 10 5 2 4 4 6 2 1 1 1 1 2 3 4 2 0 4 2 3 2 2 6 3 4 4 10 9 8 9 10 14 13 14 13 13 11 8 9 9 8 7 7
28 27 26 25 23 20 17 15 13 11 3 4 7 6 3 4 4 2 4 1 2 0 0 1 3 2 2 4 3 3 4 2 4 1 3 2 7 7 9 10 11 11 11 12 13 12 12 11 10 9 8 5 4 8
19 21 25 26 23 18 17 14 15 4 7 6 5 6 3 3 3 2 2 2 0 2 2 3 2 3 2 4 2 5 1 2 3 4 3 4 10 8 10 9 11 11 5 10 11 11 10 9 9 8 8 6 6 7
17 19 19 25 20 17 17 18 18 8 6 6 5 4 3 2 1 0 1 2 3 2 1 2 3 3 3 4 3 4 3 3 4 0 3 6 10 9 10 9 11 7 5 8 10 7 7 8 8 9 7 7 7 4
6 8 14 20 16 15 10 9 9 5 5 5 6 3 2 2 3 3 4 3 4 3 3 2 3 3 3 2 3 2 4 2 3 3 4 9 10 9 8 11 10 9 6 10 9 8 7 6 6 8 7 5 4 5
11 7 17 14 13 9 15 7 5 7 5 4 4 3 2 4 4 3 3 3 4 2 3 2 4 4 2 2 3 4 3 3 5 5 6 8 10 8 10 9 7 7 9 9 9 8 7 7 5 4 4 7 4 5
7 9 15 14 10 7 5 7 5 6 7 4 4 3 3 3 1 3 2 3 3 2 2 3 2 3 3 2 3 3 3 5 5 6 7 8 8 9 8 10 9 8 10 9 8 7 5 4 4 5 6 6 4 5
8 11 17 13 7 5 5 5 4 5 5 2 2 2 3 2 4 4 3 2 2 1 2 2 4 4 4 4 4 4 5 4 5 4 4 7 8 7 7 10 10 10 8 7 6 6 6 8 6 5 5 4 4 5
3 18 21 11 9 5 6 4 3 5 4 3 2 3 3 2 2 3 4 5 6 4 6 6 5 4 4 4 4 2 6 6 5 6 5 6 7 9 8 6 6 8 7 8 7 4 5 6 6 5 5 4 5 5
8 9 12 8 5 8 6 3 4 3 3 3 1 3 3 3 4 4 5 4 6 5 4 4 3 4 6 7 6 7 6 3 3 4 7 6 5 7 7 7 6 5 6 5 6 5 6 5 5 4 4 4 4 4
5 10 4 8 6 6 5 8 2 2 3 2 2 3 3 2 3 5 2 7 5 4 4 5 7 6 8 12 10 10 7 8 9 9 11 8 6 6 6 5 6 6 7 6 6 5 5 5 4 4 4 4 4 4
5 6 6 7 6 7 4 6 5 6 4 3 2 3 3 3 4 3 5 5 4 5 5 5 7 9 9 10 11 14 13 10 8 8 8 8 8 8 8 8 7 6 6 6 5 4 4 1 4 4 4 5 5 4
6 7 7 6 7 5 1 5 3 3 3 3 2 4 4 3 3 4 5 4 6 7 8 10 6 4 7 10 9 10 9 8 9 9 7 7 8 8 8 7 7 7 5 4 4 4 3 4 4 5 5 5 5 5
8 9 5 7 4 4 4 4 5 4 4 4 3 4 3 3 3 4 4 4 7 8 8 8 8 9 7 7 7 8 12 8 7 8 9 6 6 6 6 6 7 6 6 5 5 5 5 4 4 5 6 5 7 6
8 9 6 6 4 4 4 4 4 5 3 3 4 2 2 2 4 5 4 6 6 7 7 8 8 7 8 8 7 7 8 6 6 7 7 8 8 6 5 4 4 6 6 5 5 6 6 6 6 7 6 7 7 7
7 6 5 1 1 1 3 3 0 2 5 5 3 4 2 2 5 4 4 6 4 6 6 7 7 7 7 6 6 6 6 8 7 6 5 6 7 8 7 6 6 5 5 6 6 6 7 7 7 7 7 7 6 6
5 6 5 5 4 4 3 3 4 5 4 5 5 5 5 6 5 4 5 5 3 4 5 6 7 6 7 7 6 6 4 3 4 4 5 5 6 6 6 5 3 1 2 3 3 4 5 6 7 8 9 8 7 6
5 3 2 4 4 5 6 6 4 3 5 4 5 4 4 4 4 4 4 5 6 6 6 5 4 4 5 6 6 7 7 7 7 6 6 5 3 5 6 4 4 4 4 5 6 6 7 5 6 7 8 6 6 6
4 4 3 4 4 4 4 5 4 4 5 4 4 5 5 4 5 6 6 5 5 5 5 5 5 6 6 5 5 6 6 7 7 6 5 5 6 6 5 5 5 5 5 6 7 7 8 6 7 7 6 5 5 5
2 3 2 3 4 3 3 1 4 4 3 5 8 7 6 5 4 6 7 5 5 6 5 6 7 7 6 7 7 6 4 6 5 5 5 5 5 6 6 6 5 5 5 6 6 7 8 7 7 8 8 9 8 7
3 4 3 3 4 3 2 2 2 3 3 3 3 3 4 4 4 4 6 7 6 6 7 7 6 6 6 5 5 4 1 4 5 5 8 6 7 8 8 7 6 6 7 6 7 7 8 9 7 8 8 10 9 7
2 3 2 2 1 2 3 4 1 3 3 3 3 3 5 5 5 3 3 5 5 5 5 5 4 4 4 3 5 4 4 5 8 7 6 3 2 5 6 6 7 8 10 9 8 9 10 11 9 8 8 7 8 6
Wind_Direction
161 171 180 180 181 180 186 191 190 186 182 176 188 174 183 203 225 197 223 240 268 272 173 193 196 181 170 158 182 132 139 161 141 131 143 160 110 211 206 182 159 167 157 185 116 147 267 130 126 133 55 10 13 5
167 172 173 179 182 188 192 187 173 178 180 183 193 183 185 202 196 187 247 236 239 243 78 84 61 40 33 49 131 171 157 158 161 148 136 74 108 20 44 192 178 187 182 177 173 198 141 118 46 55 44 15 3 357
170 172 178 181 188 195 184 179 184 194 188 190 196 197 205 190 192 190 213 228 265 168 105 101 71 52 43 27 28 136 217 169 159 82 124 116 149 169 143 225 116 196 83 173 65 183 165 148 80 69 39 12 350 357
178 181 169 180 186 191 198 200 199 201 189 188 184 186 187 181 193 194 229 255 290 69 93 76 104 40 343 46 59 7 123 48 96 102 107 128 135 202 192 265 132 21 144 201 207 270 15 64 54 44 23 37 24 32
176 210 220 231 225 213 229 202 198 191 178 177 175 173 185 185 176 184 223 266 290 328 116 101 103 25 69 135 142 117 127 130 122 109 98 149 93 101 43 19 157 174 171 158 140 73 17 72 59 49 61 54 47 67
206 198 220 222 205 180 169 179 170 158 158 162 161 167 173 176 152 155 235 216 315 38 103 107 77 76 104 140 147 148 157 169 158 89 116 75 48 133 129 171 88 91 74 50 70 45 78 93 79 66 73 69 66 72
122 131 137 136 137 142 147 150 147 149 154 156 155 156 159 161 161 248 340 334 330 311 94 103 113 70 97 92 37 109 99 47 97 92 68 142 117 109 148 162 122 105 100 83 51 96 79 123 101 87 91 95 95 95
87 95 100 116 137 147 149 150 150 151 147 140 137 132 117 96 81 21 333 316 309 357 97 111 203 118 289 88 94 335 66 88 31 87 78 67 61 352 125 110 104 115 111 98 75 67 100 104 98 103 114 115 104 95
47 70 77 87 96 116 132 138 137 135 133 132 128 129 128 47 180 91 254 283 202 53 80 112 141 146 108 60 54 57 62 78 40 77 117 90 144 149 105 135 118 108 117 111 94 92 98 106 115 118 115 106 99 123
51 58 62 63 83 95 109 120 129 135 136 136 139 146 102 49 341 121 122 25 20 64 23 79 114 121 86 135 86 96 6 149 133 116 86 56 89 100 91 89 119 133 135 126 119 116 126 127 131 132 122 128 78 59
45 46 51 48 46 52 82 107 122 128 152 160 88 63 75 201 142 26 69 81 235 231 28 4 130 122 352 137 128 339 117 54 137 136 173 158 194 163 157 139 136 162 149 117 122 141 139 120 106 105 93 81 71 74
49 51 45 47 43 49 58 64 76 51 35 84 106 110 46 44 45 69 56 123 167 316 351 59 65 89 61 254 101 151 98 140 145 139 133 200 110 137 145 143 132 122 130 128 118 115 120 127 106 95 96 92 92 95
51 47 40 41 38 36 46 64 69 104 160 69 59 61 26 12 45 224 185 176 154 339 23 139 91 78 99 74 72 106 120 125 111 134 209 65 128 152 149 123 115 123 120 120 115 103 94 79 75 93 91 67 126 78
47 49 44 29 20 33 38 55 43 36 51 62 59 69 50 145 73 26 350 58 62 292 66 95 67 88 130 73 105 96 36 158 155 205 206 139 152 146 131 132 134 119 80 113 113 111 113 109 98 86 85 82 63 62
52 44 41 17 14 12 13 45 50 45 50 58 40 70 82 121 65 267 302 64 358 319 275 125 63 70 55 95 63 116 133 188 222 234 105 139 143 135 141 138 111 105 85 112 112 102 103 117 116 100 77 78 83 71
64 57 20 353 0 23 17 50 35 49 54 49 43 73 347 78 29 27 16 35 355 328 306 49 92 71 67 98 134 182 183 191 99 87 114 135 138 139 143 123 137 148 142 106 115 118 102 94 112 105 101 89 125 100
50 45 338 344 343 36 33 65 55 61 66 52 48 5 13 67 48 29 8 350 309 4 49 330 63 48 135 98 93 20 35 64 106 105 116 130 138 140 119 104 103 106 114 118 125 115 105 101 131 126 95 59 33 106
43 20 358 354 352 45 53 42 54 59 64 25 58 7 41 26 40 45 11 317 6 48 15 54 360 57 27 57 79 86 84 86 72 95 116 121 119 119 120 127 139 127 95 89 102 113 113 151 126 81 62 38 11 33
44 23 7 3 11 70 65 35 37 78 58 46 32 13 48 44 32 23 354 352 8 345 90 27 37 33 42 20 13 76 87 89 96 64 78 119 123 126 115 103 103 104 120 143 145 107 88 69 67 56 45 24 13 20
89 24 355 355 26 79 72 45 37 63 58 66 28 25 54 35 351 332 2 25 31 56 42 40 30 14 359 352 345 11 105 114 114 97 78 88 103 111 107 112 107 106 97 95 74 61 124 108 71 52 45 23 16 358
26 355 348 16 49 51 63 34 63 62 105 68 9 49 58 28 30 16 20 10 51 31 58 28 48 42 30 25 13 23 32 45 136 139 135 121 109 101 102 98 102 101 100 87 108 95 66 62 49 29 20 23 22 313
6 329 52 24 61 50 61 13 51 111 66 95 48 57 53 41 42 20 351 48 55 29 29 15 27 39 40 34 29 21 33 46 54 60 70 90 111 107 105 104 101 86 77 64 66 66 68 50 41 7 353 13 321 327
336 27 45 30 68 45 30 345 48 15 53 35 1 66 45 49 11 318 83 59 60 8 32 51 52 52 59 49 45 35 33 50 57 60 65 70 72 69 65 52 51 90 91 65 55 59 63 350 59 353 337 353 326 339
39 50 39 43 39 65 66 32 23 75 44 8 35 68 41 25 317 62 70 69 39 20 21 21 11 107 76 57 49 33 28 44 52 42 60 80 77 74 75 75 68 57 49 64 53 33 38 19 356 351 5 332 327 344
63 20 12 49 19 47 57 45 17 42 50 8 53 62 42 322 58 56 58 76 49 29 11 5 48 31 51 71 58 43 24 37 57 60 30 56 99 101 96 90 80 61 33 32 26 7 6 354 349 354 337 322 334 330
70 28 38 28 33 35 22 62 43 28 3 57 57 46 306 44 62 61 60 30 49 27 18 10 15 58 56 38 44 36 20 8 80 70 44 30 27 37 57 63 109 82 31 27 5 349 340 350 339 331 323 327 321 320
58 57 55 18 329 121 100 80 14 42 30 28 30 349 309 88 76 79 95 31 42 43 34 22 28 45 54 61 61 53 44 42 57 76 82 68 58 48 42 40 38 27 343 19 2 355 335 333 331 329 319 314 333 354
52 32 46 9 49 23 72 46 31 30 39 349 312 39 32 24 58 48 42 34 47 83 72 61 54 49 48 40 37 32 43 100 127 128 112 102 90 80 57 51 96 201 308 28 353 324 334 326 330 318 326 337 333 328
52 352 353 19 50 56 31 21 56 54 349 331 356 60 78 59 23 30 30 26 29 41 45 48 65 101 101 84 55 42 33 14 23 32 29 31 57 53 23 4 357 357 354 340 334 333 330 313 305 310 303 304 298 294
37 339 36 35 42 62 60 5 70 72 43 43 105 114 95 95 46 29 36 33 39 57 55 43 44 42 26 36 69 88 66 48 32 23 6 6 351 344 331 338 358 343 342 338 328 326 319 334 328 309 312 302 309 349
347 327 71 51 62 54 34 27 123 115 82 51 38 79 108 125 111 54 19 12 47 23 46 75 63 39 41 35 21 8 50 55 32 41 14 318 324 322 335 344 332 330 319 315 319 321 318 314 315 318 315 323 326 316
37 31 0 24 86 80 30 23 2 17 112 105 99 124 172 159 87 75 5 355 52 59 37 35 36 48 35 8 3 41 153 324 350 11 348 339 331 334 330 337 327 310 313 314 308 301 308 315 311 309 309 316 336 348
90 68 47 35 91 100 72 315 91 108 69 70 66 48 44 33 64 90 102 46 35 30 24 16 9 1 6 351 356 325 311 3 2 326 337 3 321 304 309 313 328 326 320 316 319 316 309 308 310 319 321 314 307 335